Forestdale, MA

11:29 PM EDT on September 30, 2016 (GMT -0400)
Cape Cod Coast Guard Air Station

Weather History for KFMH - September, 2013

Change the Weather History Date:

Tuesday, September 10, 2013

  Actual Average Record
Temperature  
Mean Temperature 64 °F -  
Max Temperature 73 °F 71 °F 82 °F (2001)
Min Temperature 55 °F 55 °F 39 °F (1998)
Degree Days  
Heating Degree Days 1    
Growing Degree Days 14 (Base 50)    
Moisture  
Dew Point 60 °F    
Average Humidity 80    
Maximum Humidity 91    
Minimum Humidity 60    
Precipitation  
Precipitation 0.00 in - - ()
Sea Level Pressure  
Sea Level Pressure 30.15 in    
Wind  
Wind Speed 11 mph (SW)    
Max Wind Speed 25 mph    
Max Gust Speed 30 mph    
Visibility 10 miles    
Events      
Averages and records for this station are not official NWS values.
T = Trace of Precipitation, MM = Missing Value Source: NWS Daily Summary

Daily Weather History Graph

Daily Weather History Graph

Search for Another Location

Airport or City:

Trip Planner

Search our weather history database for the weather conditions in past years. The results will help you decide how hot, cold, wet, or windy it might be!

Date:

Astronomy

Sep. 10, 2013 Rise Set
Actual Time 6:17 AM EDT 6:59 PM EDT
Civil Twilight 5:49 AM EDT 7:27 PM EDT
Nautical Twilight 5:16 AM EDT 8:00 PM EDT
Astronomical Twilight 4:41 AM EDT 8:35 PM EDT
Moon 11:44 AM EDT (9/10) 9:55 PM EDT (9/10)
Length of Visible Light 13h 38m
Length of Day
12h 42m
Waxing Crescent, 28% of the Moon is Illuminated
Sep 10
Waxing Crescent
Sep 12
First Quarter
Sep 19
Full
Sep 26
Last Quarter
Oct 4
New

Hourly Weather History & Observations

Time (EDT) Temp. Dew Point Humidity Pressure Visibility Wind Dir Wind Speed Gust Speed Precip Events Conditions
12:15 AM 57.2 °F 53.6 °F 88% 30.20 in 10.0 mi South 6.9 mph - N/A   Clear
12:35 AM 57.2 °F 53.6 °F 88% 30.20 in 10.0 mi South 6.9 mph - N/A   Scattered Clouds
12:55 AM 59.0 °F 53.6 °F 82% 30.20 in 10.0 mi SSW 8.1 mph - N/A   Scattered Clouds
1:15 AM 59.0 °F 53.6 °F 82% 30.20 in 10.0 mi SSW 6.9 mph - N/A   Clear
1:35 AM 57.2 °F 53.6 °F 88% 30.19 in 10.0 mi SSW 6.9 mph - N/A   Partly Cloudy
1:55 AM 59.0 °F 53.6 °F 82% 30.19 in 10.0 mi SSW 6.9 mph - N/A   Clear
2:15 AM 57.2 °F 53.6 °F 88% 30.19 in 10.0 mi SSW 6.9 mph - N/A   Clear
2:35 AM 57.2 °F 53.6 °F 88% 30.19 in 10.0 mi SSW 8.1 mph - N/A   Partly Cloudy
2:55 AM 57.2 °F 53.6 °F 88% 30.20 in 10.0 mi SW 6.9 mph - N/A   Scattered Clouds
3:15 AM 55.4 °F 51.8 °F 88% 30.19 in 10.0 mi SSW 6.9 mph - N/A   Mostly Cloudy
3:35 AM 57.2 °F 53.6 °F 88% 30.19 in 10.0 mi SSW 6.9 mph - N/A   Partly Cloudy
3:55 AM 59.0 °F 53.6 °F 82% 30.19 in 10.0 mi South 5.8 mph - N/A   Mostly Cloudy
4:15 AM 59.0 °F 53.6 °F 82% 30.18 in 10.0 mi South 6.9 mph - N/A   Overcast
4:35 AM 59.0 °F 55.4 °F 88% 30.18 in 10.0 mi South 5.8 mph - N/A   Overcast
4:55 AM 59.0 °F 55.4 °F 88% 30.18 in 10.0 mi South 8.1 mph - N/A   Overcast
5:15 AM 60.8 °F 55.4 °F 82% 30.18 in 10.0 mi SSW 6.9 mph - N/A   Overcast
5:35 AM 62.6 °F 57.2 °F 82% 30.18 in 10.0 mi South 6.9 mph - N/A   Overcast
5:55 AM 62.6 °F 57.2 °F 82% 30.18 in 10.0 mi SSW 6.9 mph - N/A   Overcast
6:15 AM 62.6 °F 57.2 °F 82% 30.18 in 10.0 mi South 8.1 mph - N/A   Overcast
6:35 AM 62.6 °F 57.2 °F 82% 30.19 in 10.0 mi SSW 6.9 mph - N/A   Overcast
6:55 AM 64.4 °F 57.2 °F 77% 30.19 in 10.0 mi SSW 9.2 mph - N/A   Overcast
7:15 AM 64.4 °F 57.2 °F 77% 30.19 in 10.0 mi SSW 10.4 mph - N/A   Overcast
7:35 AM 64.4 °F 57.2 °F 77% 30.19 in 10.0 mi SSW 10.4 mph - N/A   Overcast
7:55 AM 64.4 °F 57.2 °F 77% 30.19 in 10.0 mi SW 11.5 mph - N/A   Overcast
8:15 AM 64.4 °F 57.2 °F 77% 30.19 in 10.0 mi SSW 10.4 mph - N/A   Overcast
8:35 AM 64.4 °F 57.2 °F 77% 30.19 in 10.0 mi SW 11.5 mph - N/A   Overcast
8:55 AM 64.4 °F 57.2 °F 77% 30.19 in 10.0 mi SSW 13.8 mph 21.9 mph N/A   Overcast
9:15 AM 64.4 °F 57.2 °F 77% 30.19 in 10.0 mi SSW 10.4 mph - N/A   Overcast
9:35 AM 64.4 °F 59.0 °F 83% 30.19 in 10.0 mi SSW 12.7 mph 17.3 mph N/A   Overcast
9:55 AM 66.2 °F 57.2 °F 73% 30.19 in 10.0 mi SSW 10.4 mph - N/A   Overcast
10:15 AM 66.2 °F 59.0 °F 78% 30.18 in 10.0 mi SSW 10.4 mph - N/A   Overcast
10:35 AM 66.2 °F 59.0 °F 78% 30.18 in 10.0 mi SSW 13.8 mph 18.4 mph N/A   Overcast
10:55 AM 68.0 °F 59.0 °F 73% 30.17 in 10.0 mi SSW 18.4 mph 24.2 mph N/A   Overcast
11:15 AM 68.0 °F 59.0 °F 73% 30.18 in 10.0 mi SSW 15.0 mph 21.9 mph N/A   Overcast
11:35 AM 68.0 °F 59.0 °F 73% 30.17 in 10.0 mi SW 12.7 mph - N/A   Overcast
11:55 AM 68.0 °F 59.0 °F 73% 30.17 in 10.0 mi SW 15.0 mph 21.9 mph N/A   Overcast
12:15 PM 69.8 °F 59.0 °F 68% 30.16 in 10.0 mi SW 16.1 mph 21.9 mph N/A   Overcast
12:35 PM 71.6 °F 59.0 °F 64% 30.16 in 10.0 mi SW 15.0 mph - N/A   Overcast
12:55 PM 71.6 °F 57.2 °F 60% 30.14 in 10.0 mi SSW 18.4 mph 25.3 mph N/A   Overcast
1:15 PM 71.6 °F 59.0 °F 64% 30.12 in 10.0 mi SSW 17.3 mph 21.9 mph N/A   Overcast
1:35 PM 71.6 °F 59.0 °F 64% 30.11 in 10.0 mi SW 18.4 mph 25.3 mph N/A   Overcast
1:55 PM 73.4 °F 62.6 °F 69% 30.09 in 10.0 mi SW 20.7 mph 29.9 mph N/A   Overcast
2:15 PM 73.4 °F 62.6 °F 69% 30.10 in 10.0 mi SW 21.9 mph 28.8 mph N/A   Overcast
2:35 PM 73.4 °F 62.6 °F 69% 30.09 in 10.0 mi SW 21.9 mph 26.5 mph N/A   Overcast
2:55 PM 73.4 °F 64.4 °F 73% 30.08 in 10.0 mi SSW 20.7 mph - N/A   Overcast
3:15 PM 73.4 °F 62.6 °F 69% 30.09 in 10.0 mi SW 25.3 mph 29.9 mph N/A   Overcast
3:35 PM 71.6 °F 62.6 °F 73% 30.11 in 10.0 mi SW 16.1 mph 26.5 mph N/A   Overcast
3:55 PM 71.6 °F 62.6 °F 73% 30.11 in 10.0 mi SW 17.3 mph 21.9 mph N/A   Overcast
4:15 PM 71.6 °F 62.6 °F 73% 30.11 in 10.0 mi SW 17.3 mph 26.5 mph N/A   Overcast
4:35 PM 71.6 °F 64.4 °F 78% 30.11 in 10.0 mi SW 19.6 mph 24.2 mph N/A   Overcast
4:55 PM 69.8 °F 64.4 °F 83% 30.11 in 10.0 mi SW 17.3 mph 26.5 mph N/A   Overcast
5:15 PM 69.8 °F 64.4 °F 83% 30.11 in 10.0 mi SW 13.8 mph 19.6 mph N/A   Overcast
5:35 PM 69.8 °F 64.4 °F 83% 30.11 in 10.0 mi SW 13.8 mph 21.9 mph N/A   Overcast
5:55 PM 69.8 °F 64.4 °F 83% 30.10 in 10.0 mi SW 15.0 mph 23.0 mph N/A   Overcast
6:15 PM 69.8 °F 64.4 °F 83% 30.10 in 10.0 mi SW 13.8 mph 21.9 mph N/A   Overcast
6:35 PM 69.8 °F 64.4 °F 83% 30.11 in 10.0 mi SW 16.1 mph - N/A   Mostly Cloudy
6:55 PM 68.0 °F 64.4 °F 88% 30.10 in 10.0 mi SW 13.8 mph 24.2 mph N/A   Scattered Clouds
7:15 PM 68.0 °F 64.4 °F 88% 30.10 in 10.0 mi SW 15.0 mph 21.9 mph N/A   Clear
7:35 PM 68.0 °F 64.4 °F 88% 30.10 in 10.0 mi SW 15.0 mph 20.7 mph N/A   Mostly Cloudy
7:55 PM 69.8 °F 64.4 °F 83% 30.10 in 10.0 mi SW 18.4 mph 24.2 mph N/A   Overcast
8:15 PM 69.8 °F 64.4 °F 83% 30.11 in 10.0 mi SW 17.3 mph 21.9 mph N/A   Scattered Clouds
8:35 PM 69.8 °F 64.4 °F 83% 30.11 in 10.0 mi SW 17.3 mph 21.9 mph N/A   Partly Cloudy
8:55 PM 69.8 °F 64.4 °F 83% 30.11 in 10.0 mi SW 16.1 mph 21.9 mph N/A   Partly Cloudy
9:15 PM 69.8 °F 64.4 °F 83% 30.11 in 10.0 mi SW 16.1 mph 20.7 mph N/A   Clear
9:35 PM 69.8 °F 66.2 °F 88% 30.11 in 10.0 mi SW 15.0 mph 21.9 mph N/A   Clear
9:55 PM 69.8 °F 66.2 °F 88% 30.11 in 10.0 mi SW 16.1 mph 25.3 mph N/A   Clear
10:15 PM 69.8 °F 66.2 °F 88% 30.12 in 10.0 mi WSW 15.0 mph 25.3 mph N/A   Scattered Clouds
10:35 PM 69.8 °F 66.2 °F 88% 30.12 in 10.0 mi WSW 16.1 mph 20.7 mph N/A   Scattered Clouds
10:55 PM 69.8 °F 66.2 °F 88% 30.12 in 10.0 mi WSW 15.0 mph 19.6 mph N/A   Overcast
11:15 PM 69.8 °F 66.2 °F 88% 30.13 in 10.0 mi WSW 15.0 mph 20.7 mph N/A   Overcast
11:35 PM 69.8 °F 66.2 °F 88% 30.12 in 10.0 mi WSW 11.5 mph - N/A   Overcast
11:55 PM 69.8 °F 66.2 °F 88% 30.12 in 10.0 mi SW 12.7 mph - N/A   Overcast